Simultaneous Nadir Overpasses (SNOs) Predictions

Prediction of SNOs between GOES-16 and AQUA Satellite Orbit:

Table of predicted SNOs for the next 14.0 days since TLE Epoch: 3/22/2019
Index Date Time (GOES-16) GOES-16 Lat,Lon AQUA Lat,Lon Distance(km) Time Diff (sec)
1 03/24/2019 06:30:00 -0.02, -75.20 -0.31, -73.90 148.42 80
2 03/24/2019 18:51:24 0.02, -75.21 -0.78, -79.09 440.65 80
3 03/26/2019 06:17:50 -0.02, -75.21 -0.96, -70.95 485.28 80
4 03/26/2019 18:39:13 0.02, -75.22 -0.20, -76.13 103.62 80
5 03/28/2019 18:29:43 0.02, -75.24 0.45, -73.18 234.16 80
6 03/29/2019 06:51:00 -0.02, -75.24 0.62, -78.35 352.73 80
7 03/31/2019 06:38:49 -0.01, -75.27 0.02, -75.39 14.12 80
8 04/02/2019 06:23:59 -0.00, -75.30 -0.63, -72.44 325.28 80
9 04/02/2019 18:45:22 0.00, -75.31 -0.51, -77.62 263.14 80
10 04/04/2019 18:35:52 0.00, -75.35 0.15, -74.67 76.88 80




NCC Satellite Simultaneous Nadir Overpasses (SNOs) Prediction Service
